Weather in Rokytnice nad Jizerou

Czech Republic     50°43′45″N   15°26′55″E
temp.,
°C
wind,
m/s
gust,
m/s
humid.,
%
clouds,
%
prec.,
mm/h
press.,
hPa
HPBL,
m
8 december, wed
wed801:00−7sse239983 0.1 101360
04:00−8se239865 0.0 101139
07:00−7sse249613 0.0 101064
10:00−4sse368870 0.0 1009235
13:00−3sse3786100 0.0 1007319
16:00−5se2695100 0.0 1006202
19:00−4sse31091100 0.1 1006583
22:00−4se389191 0.0 1007406
9 december, thu
thu901:00−5sse3993100 0.1 1006500
04:00−4sse3996100 0.4 1005603
07:00−4sse2697100 1.1 1006381
10:00−3s3694100 0.6 1007559
13:00−3s2492100 0.8 1007470
16:00−4s1198100 0.1 100732
19:00−4nw1297100 0.8 1007112
22:00−3nnw1298100 1.9 1007131
10 december, fri
fri1001:00−3wnw139895 3.5 1006157
04:00−3sw1298100 1.5 1005113
07:00−5s119890 2.4 100528
10:00−3ssw2398100 0.3 1003203
13:00−2sse2599100 0.3 1002338
16:00−3sse2697100 0.0 1002365
19:00−4sse3798100 0.1 1004352
22:00−4sse259799 0.1 1005388
11 december, sat
sat1101:00−5s2498100 0.3 1006194
04:00−4s2599100 0.1 1008322
07:00−4s2498100 0.3 1009187
10:00−2ssw1296100 0.7 1011164
13:00−1sw129597 1.2 1012314
16:00−2w129998 0.4 101591
19:00−4nw139993 0.8 1018208
22:00−3nw249886 0.2 1021270
12 december, sun
sun1201:00−4nw259695 0.2 1023358
04:00−3wnw2596100 0.1 1025328
07:00−3w129895 0.1 102666
10:00−3w129258 0.0 1028312
13:00−2w228972 0.0 1027397
16:00−6wsw119774 0.0 102910
19:00−7sse019499 0.0 103010
22:00−7s119791 0.0 102912